Location: Unspecified
(0.0000°N, 0.0000°E)
Time: 10:04:46
(UTC+00:00)

Vanguard 2 - Pass Details

Date: 23 October 2021
Orbit: 554 x 2936 km, 32.9° (Epoch: 06 December)

Event Time Altitude Azimuth Distance (km) Brightness Sun altitude
Rises 12:04:32 0° 264° (W) 3,004 10.7 77.4°
Reaches altitude 10° 12:07:23 10° 242° (WSW) 2,311 10.3 77.1°
Maximum altitude 12:10:55 17° 201° (SSW) 2,155 10.3 76.7°
Drops below altitude 10° 12:15:28 10° 162° (SSE) 3,105 10.9 76.1°
Sets 12:20:16 0° 144° (SE) 4,588 11.6 75.4°
